Miscellaneous Local Product
Issued by NWS Hastings, NE

Home | Current Version | Previous Version | Text Only | Print | Product List | Glossary On
Versions: 1 2 3 4 5 6 7 8 9 10 11 12 13 14 15 16 17 18 19 20 21 22 23 24 25 26 27 28 29 30 31 32 33 34 35 36 37 38 39 40 41 42 43 44 45 46 47 48 49 50
000
AXUS43 KGID 172102
MISGRI

GID CWA HOURLY WEATHER ROUNDUP
NATIONAL WEATHER SERVICE HASTINGS NE
400 PM CDT TUE OCT 17 2017

NOTE: "FAIR" INDICATES FEW OR NO CLOUDS BELOW 12,000 FEET WITH NO
SIGNIFICANT WEATHER AND/OR OBSTRUCTIONS TO VISIBILITY.

...SOUTH CENTRAL NEBRASKA...

CITY           SKY/WX    TMP DP  RH WIND       PRES   REMARKS
GRAND ISLAND   SUNNY     79  34  19 SW3       30.01F
HASTINGS       SUNNY     78  34  20 CALM      30.02F
KEARNEY        SUNNY     79  33  19 SE3       30.02F
ORD            SUNNY     77  32  19 S8        29.99F
YORK           SUNNY     75  39  27 CALM      30.01F
AURORA         SUNNY     78  35  21 CALM      30.00F
LEXINGTON      SUNNY     79  32  18 S6        30.01F
HOLDREGE       SUNNY     78  35  20 CALM      30.02F
HEBRON         SUNNY     75  42  29 S6        30.03S

...NEBRASKA PANHANDLE...

CITY           SKY/WX    TMP DP  RH WIND       PRES   REMARKS
CHADRON        SUNNY     78  16   9 SW10      29.93F
ALLIANCE       SUNNY     76  15  10 W13G24    29.99F
SCOTTSBLUFF    SUNNY     78  16   9 W8        30.00F
SIDNEY         SUNNY     81  12   7 SW17      30.05F

...WESTERN AND NORTH CENTRAL NEBRASKA...

CITY           SKY/WX    TMP DP  RH WIND       PRES   REMARKS
VALENTINE      SUNNY     82  21  10 S15       29.93F
AINSWORTH      SUNNY     79  33  18 S14G20    29.96F
ONEILL         SUNNY     77  38  24 S9        29.98F
BROKEN BOW     SUNNY     77  38  24 S9        30.00F
IMPERIAL       SUNNY     81  16   9 S10       30.03F
NORTH PLATTE   SUNNY     79  27  14 SW8       30.00F
MCCOOK         SUNNY     80  28  15 S5        30.02F

...EASTERN NEBRASKA...

CITY           SKY/WX    TMP DP  RH WIND       PRES   REMARKS
NORFOLK        SUNNY     78  35  21 SE5       29.97F
SO SIOUX CITY  SUNNY     76  47  35 S7        29.98F
TEKAMAH        SUNNY     72  42  34 S6        30.00F
COLUMBUS       SUNNY     77  40  26 SW3       30.00F
ALBION         SUNNY     79  34  19 CALM      29.99F
OMAHA EPPLEY   MOSUNNY   72  44  36 S10       30.01F
OFFUTT AFB     SUNNY     72  44  36 S8        30.01F
MILLARD        SUNNY     73  48  41 S8        30.01F
LINCOLN        SUNNY     73  46  38 S12       30.02F
NEBRASKA CITY  SUNNY     72  46  39 S13       30.03F
BEATRICE       SUNNY     72  47  41 S12       30.03S
FALLS CITY     SUNNY     73  45  36 S10       30.04F

...NORTHERN KANSAS...

CITY           SKY/WX    TMP DP  RH WIND       PRES   REMARKS
GOODLAND       SUNNY     79  21  11 MISG      30.06F HAZE
HILL CITY      SUNNY     81  32  17 S3        30.03F
NORTON         CLEAR     79  19  11 CALM      30.02F
PHILLIPSBURG   SUNNY     81  28  15 CALM      30.02F
SMITH CENTER   SUNNY     79  37  22 S5        30.02F
HAYS           SUNNY     81  36  19 SE5       30.02F
RUSSELL        SUNNY     80  43  26 S9        30.01F
CONCORDIA      SUNNY     74  46  36 S8        30.03F
SALINA         SUNNY     78  48  34 S15       30.03F
TOPEKA         SUNNY     75  46  35 S15G22    30.06F



USA.gov is the U.S. government's official web portal to all federal, state and local government web resources and services.